Theta_e
308 308 310 312 310 309 308 308 307 306 307 306 304 306 306 310 302 299 310 317 314 313 313 315 319 325 324 320 322 323 325 325 331 351 340 338 338 347 348 351 355 354 361 365 357 357 359 357 353 352 352 353 355 354 351 349 348 350 352 353 353 355 361 363 364 364 366 366 365 366 366 367 364 362 361 360 359 362 362 360 357 355 355 353 349 349 348
308 308 308 310 310 309 309 308 308 307 307 306 306 306 307 307 309 310 309 317 313 311 313 315 317 322 321 322 326 325 325 323 337 336 335 327 334 345 346 352 354 360 362 367 367 364 364 359 356 352 352 354 353 351 348 348 348 349 352 352 353 354 360 364 366 366 368 367 366 367 366 366 365 363 361 360 359 361 361 360 359 357 356 353 350 348 348
307 309 310 309 309 309 308 308 309 309 308 307 307 306 307 308 306 307 307 311 311 313 319 318 319 321 321 323 321 320 325 324 323 324 323 325 325 329 342 352 351 356 357 364 366 366 364 361 359 354 354 355 356 350 347 345 348 350 354 354 354 354 360 365 367 368 369 369 368 367 367 366 365 364 362 361 360 361 361 360 358 357 357 352 349 349 350
304 308 309 308 309 308 308 307 308 308 307 306 307 305 308 306 307 308 306 307 308 313 316 316 319 320 320 319 322 323 326 323 326 325 324 325 330 332 336 350 350 353 355 358 361 362 361 362 362 358 358 358 356 350 347 345 345 348 354 355 354 355 361 367 369 369 369 370 370 369 369 367 366 365 364 363 362 361 360 360 359 358 356 352 350 351 350
303 307 308 307 308 307 303 304 307 309 309 310 310 312 311 310 309 305 304 305 313 318 319 315 316 315 318 319 318 320 322 331 327 326 326 326 327 331 343 351 350 350 350 355 359 358 357 358 360 360 361 359 358 355 352 349 349 347 351 355 358 358 364 368 370 370 371 372 371 371 370 368 367 366 366 365 364 363 362 362 361 358 356 353 351 352 350
302 306 307 308 304 298 299 310 312 311 309 310 309 308 310 312 311 308 310 311 316 317 315 314 316 315 318 322 328 329 331 336 345 334 329 327 326 327 336 350 352 351 353 353 358 358 359 359 357 358 360 359 360 359 358 358 353 351 351 360 361 360 366 369 371 372 373 372 371 371 371 370 368 367 366 364 363 363 361 360 359 356 354 353 353 352 350
301 306 305 301 296 297 311 315 316 315 313 312 311 311 312 313 314 313 312 312 314 317 316 317 319 323 324 324 322 321 321 326 327 330 328 335 331 329 332 349 350 355 356 359 362 362 358 357 359 359 360 360 361 360 360 359 360 358 357 364 362 363 367 371 373 373 373 372 371 371 370 369 367 366 365 364 363 360 358 356 355 354 352 351 351 351 348
305 303 302 293 295 309 312 313 315 317 315 314 312 310 312 313 313 314 314 318 316 317 317 316 320 324 318 317 320 327 323 323 324 322 323 326 327 331 332 333 344 359 358 359 359 362 360 362 358 357 357 357 356 355 357 358 359 361 365 368 365 366 369 372 373 373 371 370 370 369 367 367 365 364 364 364 361 361 359 357 356 355 354 351 350 349 348
300 301 301 301 310 308 310 311 312 313 312 311 309 305 309 314 315 314 316 319 318 319 317 316 316 319 317 318 319 319 319 324 323 322 323 324 326 327 332 333 346 363 363 363 361 367 364 358 357 355 357 357 357 357 355 356 360 361 367 368 366 368 371 373 372 371 371 369 367 366 365 363 362 361 361 361 361 361 357 355 354 354 353 351 351 347 346
305 302 300 300 300 298 305 314 319 320 319 318 317 315 311 319 319 319 318 319 320 322 321 323 322 318 315 313 315 320 319 320 320 321 322 323 324 325 328 331 344 366 364 365 366 365 363 360 358 359 359 359 360 359 356 358 359 360 369 367 368 370 372 373 371 371 371 369 367 365 363 361 359 359 358 359 359 360 355 351 349 351 351 351 350 348 345
305 302 299 298 297 302 312 314 319 319 320 318 318 312 306 318 322 326 322 319 322 322 321 324 324 322 317 311 315 321 321 320 320 320 320 322 321 323 326 327 328 362 362 361 364 366 364 359 359 361 361 360 359 358 358 356 357 359 367 368 370 371 371 372 372 370 369 369 367 364 362 360 358 356 355 356 356 357 354 353 351 352 351 349 348 347 343
305 303 300 299 306 304 315 318 318 318 319 319 314 301 302 327 327 324 326 324 322 325 328 326 324 324 317 319 322 319 321 322 323 325 326 325 324 324 326 326 327 346 363 362 366 363 361 361 360 363 362 361 359 358 359 357 357 360 365 370 372 372 371 372 371 369 368 367 366 364 362 360 359 358 356 354 354 352 352 352 351 350 350 348 346 344 343
303 303 301 303 306 314 320 318 319 320 319 316 304 298 307 325 325 324 325 323 325 328 328 328 322 326 327 327 326 324 325 321 322 327 330 331 329 331 325 324 333 350 362 362 363 360 362 363 360 361 360 360 358 359 360 359 358 360 367 373 373 372 372 370 369 368 368 367 366 365 362 360 357 356 354 353 352 352 349 349 351 353 349 347 344 344 341
301 303 300 301 305 313 319 320 319 320 314 303 303 322 326 326 322 323 323 325 327 328 328 329 329 329 329 329 325 324 324 324 333 333 334 337 339 334 350 364 353 361 358 362 361 359 366 364 361 362 362 361 360 362 362 362 363 365 371 373 373 373 371 369 367 366 365 366 366 364 363 361 358 356 355 353 352 350 348 350 350 347 346 345 343 342 344
303 303 300 298 293 316 319 319 317 319 310 313 323 325 325 323 324 324 325 326 327 327 327 330 331 330 328 327 327 335 333 337 331 339 341 347 346 352 358 361 357 356 358 360 356 357 360 359 359 363 364 363 362 362 363 366 367 370 372 373 372 371 369 366 365 364 365 364 363 363 362 360 357 354 353 351 351 351 350 346 345 343 343 342 341 342 343
298 298 297 297 307 317 321 318 312 317 318 324 327 323 321 326 326 327 325 329 331 331 330 328 329 331 330 332 336 339 338 337 340 341 347 356 353 348 350 353 354 353 358 357 353 355 355 360 363 364 367 361 362 363 365 369 370 371 372 371 370 367 364 365 364 362 363 363 363 362 360 359 356 353 351 352 352 350 345 344 342 342 342 342 340 337 337
303 302 305 314 321 321 322 320 320 323 326 326 325 326 326 326 327 330 328 328 329 330 331 332 332 330 330 329 332 333 335 334 338 340 338 340 344 344 350 350 358 355 355 356 353 359 366 367 369 368 366 363 363 365 368 370 370 370 369 367 365 362 362 362 362 362 362 361 361 359 358 357 353 351 351 350 347 346 343 342 342 340 340 339 338 338 339
319 319 319 320 321 321 320 323 323 322 322 325 327 328 327 327 329 329 327 327 327 330 334 334 333 332 332 333 336 336 335 334 338 344 339 340 342 338 340 350 354 354 352 356 360 360 367 369 370 369 369 368 364 366 369 368 369 368 366 363 361 360 360 360 359 358 358 357 358 356 355 355 352 351 349 346 344 343 343 341 341 340 340 338 338 338 339
308 303 319 318 318 320 320 320 322 323 323 324 327 327 328 328 328 330 331 331 331 330 335 336 337 337 336 337 339 340 341 337 337 342 347 347 346 346 346 356 357 354 349 351 354 359 361 365 365 365 365 365 365 367 367 366 365 365 362 361 358 358 357 356 357 357 355 353 353 352 353 352 350 350 347 345 343 342 342 340 340 339 339 339 339 338 339
309 310 319 319 320 321 321 322 320 320 322 324 326 327 327 328 330 332 332 332 333 334 333 335 335 335 336 337 339 339 342 345 346 347 349 350 348 351 358 358 356 358 357 357 358 360 361 363 363 361 361 361 362 362 363 363 362 361 358 357 356 355 354 353 352 353 352 352 350 348 348 347 347 347 345 344 342 342 341 341 339 339 339 339 339 339 338
313 314 317 320 320 321 319 320 321 321 322 323 324 325 325 326 327 327 328 331 331 332 332 334 334 333 333 335 336 335 338 342 345 347 350 351 351 350 348 349 348 347 351 352 352 352 354 357 356 356 355 354 355 358 359 359 359 356 353 351 353 352 351 350 349 350 349 348 346 337 329 321 313 310 318 342 341 329 322 322 328 341 341 342 341 339 339
306 308 315 318 311 310 315 318 319 320 321 321 320 321 322 323 323 322 321 322 324 325 329 331 332 332 332 333 333 334 335 339 342 344 345 346 346 348 351 350 348 346 347 347 346 345 347 350 351 351 352 353 354 354 356 356 356 354 353 351 349 348 348 347 346 345 345 344 342 336 329 324 321 317 309 299 310 331 324 313 304 299 311 338 339 340 339
306 314 317 321 317 315 317 318 320 321 321 320 319 318 318 319 319 319 319 319 319 319 321 323 328 333 333 333 335 336 336 337 340 342 344 342 342 345 347 345 346 346 347 348 348 348 348 348 347 346 348 349 352 353 355 355 354 355 354 350 347 346 345 344 343 344 343 343 342 339 333 331 328 325 321 315 299 296 304 306 301 297 296 296 308 326 338
316 319 321 321 317 313 315 318 320 320 322 321 319 319 320 319 318 317 317 317 316 317 318 319 320 324 328 330 332 333 334 332 335 336 337 339 340 342 344 344 346 346 346 348 348 349 350 350 351 351 348 351 355 354 355 355 356 356 354 350 347 345 344 344 344 344 343 344 343 339 335 334 332 328 324 321 318 302 296 299 299 296 295 295 298 309 315
315 321 319 319 317 316 317 317 318 319 320 320 318 318 319 319 319 320 319 318 318 316 314 315 319 321 322 324 327 329 329 330 334 338 336 336 338 339 340 342 345 347 347 346 348 349 349 350 350 350 351 352 354 353 356 357 356 356 353 349 344 343 342 343 344 344 342 343 342 340 338 337 335 333 329 325 321 319 315 299 296 295 295 295 295 295 300
321 319 318 319 319 317 317 316 315 317 318 318 317 318 319 321 320 320 319 319 317 317 317 317 317 320 324 322 323 325 328 329 331 332 333 334 334 335 338 342 344 346 345 346 348 348 348 349 350 349 349 349 351 353 352 354 354 355 352 348 345 342 342 342 344 343 342 342 340 340 340 340 339 337 334 331 327 323 321 320 320 310 301 295 295 298 295
322 322 320 316 314 314 315 312 310 316 318 318 317 317 318 319 321 320 320 319 317 317 318 319 319 320 320 320 321 322 324 327 330 330 329 329 330 333 336 339 342 344 345 346 348 349 349 349 347 347 347 347 349 351 351 352 356 353 348 346 346 347 348 346 343 342 341 342 341 339 337 338 338 337 337 336 331 327 325 323 323 323 322 316 301 293 302
319 322 322 315 313 313 314 316 316 316 316 315 315 314 314 316 317 317 316 316 316 317 317 317 317 317 317 318 317 316 320 324 325 327 329 330 331 332 333 337 340 342 343 344 346 348 348 348 346 346 346 348 350 351 349 350 352 348 346 344 343 342 343 343 343 343 343 343 342 340 338 338 338 337 336 335 332 331 328 329 327 325 323 316 309 302 296
316 316 317 319 321 319 320 320 319 318 317 317 315 314 314 314 314 313 312 313 316 317 316 317 318 318 317 317 317 316 316 320 324 324 325 330 332 334 335 333 337 340 341 341 342 345 346 346 346 345 345 348 347 348 347 347 347 344 343 341 340 340 340 343 342 342 344 343 342 341 335 336 338 337 335 334 334 334 332 330 328 326 320 315 313 311 308
313 315 315 317 317 316 315 314 315 316 316 318 317 314 314 313 313 313 315 316 318 315 315 316 317 315 316 316 317 316 316 318 322 325 323 324 328 333 335 336 332 336 338 338 340 342 343 344 344 344 345 346 346 347 346 348 346 347 346 344 342 340 340 342 342 342 342 341 338 333 338 339 341 339 335 334 333 332 330 329 328 324 321 320 319 320 317
313 314 315 315 315 314 314 315 315 316 316 317 318 317 317 316 314 314 314 314 315 317 318 317 317 316 316 316 319 319 318 319 323 326 326 325 325 325 329 334 328 330 334 336 337 338 340 341 342 343 346 344 344 344 344 343 344 344 345 343 340 329 328 331 333 340 338 336 336 338 337 337 337 336 334 334 333 332 332 330 329 326 324 323 323 322 318
311 312 313 313 314 313 314 314 313 313 315 316 315 314 315 315 315 315 314 313 314 319 319 320 320 320 320 321 321 323 320 320 324 326 325 323 326 330 331 332 329 333 331 337 337 338 338 339 338 342 347 345 343 342 341 340 341 339 337 339 336 335 331 330 334 335 338 337 336 337 336 335 334 334 333 332 331 331 330 330 330 327 326 324 324 322 320
308 308 309 311 312 312 312 313 313 312 313 314 314 315 316 316 316 317 318 318 318 318 319 320 321 322 324 324 324 323 322 322 323 327 326 323 328 330 334 335 332 336 337 338 338 340 339 337 337 339 343 344 343 341 339 339 340 337 337 336 335 335 335 330 330 334 336 334 335 336 335 336 333 332 332 335 334 331 331 330 330 328 326 326 326 323 320
309 309 310 312 312 311 311 312 314 314 313 314 315 316 315 315 316 316 316 318 319 321 321 321 321 322 323 324 324 323 323 325 326 326 327 328 329 331 334 335 336 336 338 339 338 338 341 340 341 342 339 338 340 340 340 338 337 337 338 335 333 331 333 334 333 334 332 332 333 334 337 335 335 332 332 331 330 331 331 330 329 329 327 327 327 323 313
314 314 315 314 314 314 314 313 313 313 312 312 313 314 316 316 316 316 318 317 317 318 321 322 323 325 324 323 323 323 324 324 325 326 327 329 329 329 332 333 333 336 336 337 340 341 341 341 340 341 340 341 338 334 335 335 335 337 338 336 333 332 335 334 335 333 331 333 334 332 333 331 332 331 331 332 331 332 333 331 331 328 329 328 327 323 316
314 313 314 314 315 314 314 314 315 314 314 313 313 314 315 315 316 317 317 317 318 318 318 319 319 318 318 321 323 324 322 324 325 325 324 326 328 330 331 329 331 331 332 331 335 339 340 341 337 340 342 342 334 334 334 332 334 336 338 336 334 332 333 333 334 334 334 333 332 331 331 332 332 330 331 331 330 330 328 328 327 326 327 327 326 322 318
315 314 314 314 315 315 315 315 315 314 314 315 315 315 315 316 316 319 318 318 319 319 320 319 318 317 317 319 317 318 321 326 324 327 328 329 331 329 332 331 329 330 331 329 332 331 336 334 335 339 340 335 335 335 342 341 337 337 338 334 332 331 331 330 330 331 330 334 329 331 330 330 329 330 330 329 327 326 325 325 325 326 324 327 325 321 319
314 314 314 315 315 314 314 314 314 315 314 314 316 317 318 317 318 318 319 319 319 320 321 320 319 320 322 325 321 319 321 324 323 325 326 327 329 329 329 329 329 330 327 330 335 334 335 337 336 336 337 337 334 330 335 339 339 332 332 330 329 328 327 328 328 329 330 330 331 331 329 328 326 326 327 327 325 325 324 327 325 328 325 326 325 323 321
312 313 313 314 315 316 317 316 316 317 315 315 316 316 317 318 318 319 319 319 320 322 320 322 320 320 320 320 320 320 321 322 322 323 324 326 329 328 327 329 330 332 335 335 330 332 334 336 336 333 334 334 333 328 332 333 333 336 334 334 331 329 327 328 328 329 330 331 328 327 326 324 324 323 323 323 325 326 325 324 323 325 323 323 324 323 324
314 315 315 315 315 316 316 315 316 316 316 316 316 315 317 318 318 318 318 319 321 323 322 323 322 322 321 321 320 321 323 325 325 325 325 326 328 327 327 327 329 332 332 331 331 331 334 334 334 334 336 336 332 329 332 332 332 331 331 328 328 328 328 328 328 327 325 325 325 325 324 324 325 324 322 322 323 322 322 320 321 320 320 321 321 322 322
315 315 315 315 315 315 315 315 315 316 316 317 317 318 319 319 320 319 318 318 320 323 323 322 322 321 321 321 321 322 323 324 324 325 326 326 324 324 322 321 328 329 330 331 332 331 332 330 331 332 333 331 328 330 330 328 331 329 329 327 326 324 324 325 324 324 323 323 324 322 321 322 322 322 321 321 320 320 319 319 318 317 318 319 319 318 319
314 316 315 315 315 315 316 316 316 316 316 317 318 318 318 319 319 318 319 320 320 321 323 323 322 322 321 322 321 322 322 323 324 324 326 325 322 323 321 322 330 330 331 331 330 328 329 328 330 330 332 331 333 330 332 328 329 327 327 326 325 325 324 324 323 323 324 324 321 321 322 321 320 318 317 319 318 318 319 318 318 318 318 318 318 317 317
314 314 315 315 315 316 315 316 316 315 315 316 317 317 318 319 319 319 319 320 319 321 321 322 322 323 322 321 322 322 324 324 323 324 324 324 325 326 327 327 331 332 330 331 329 329 330 330 330 330 330 331 329 330 329 327 327 327 324 324 324 325 323 323 323 322 323 321 321 323 320 320 318 317 316 318 317 318 318 317 316 317 315 316 315 314 316
313 313 314 315 315 315 315 315 315 314 314 315 318 319 320 320 320 319 318 318 318 319 319 320 319 321 322 321 320 320 321 321 322 322 322 322 323 325 327 327 328 328 329 328 328 328 331 330 329 329 330 329 329 328 328 326 325 324 324 324 323 322 322 322 322 322 321 321 322 321 320 319 319 320 319 317 316 315 315 314 313 313 313 314 313 312 313
314 315 314 314 315 316 315 314 314 313 315 317 318 318 319 317 319 317 318 318 318 318 320 319 319 319 318 318 319 319 321 323 322 322 319 317 317 319 324 326 326 325 325 327 326 326 327 327 327 328 327 329 328 328 326 325 323 322 323 322 322 323 322 321 321 320 321 321 322 321 320 319 317 317 318 315 317 314 313 314 315 314 313 313 313 312 313
314 314 315 315 314 314 315 315 315 318 317 317 313 315 319 320 317 318 319 317 317 315 315 317 319 317 316 316 318 320 319 319 320 323 324 321 320 323 326 325 325 325 326 326 325 324 325 326 326 326 329 328 327 323 323 325 323 323 321 320 321 321 324 324 320 320 322 320 320 319 317 316 317 315 316 316 315 314 313 314 313 314 315 313 313 313 314
314 314 314 314 315 315 316 316 317 316 314 313 314 314 317 317 317 317 317 318 319 316 316 316 316 316 319 320 318 317 314 315 317 318 321 323 326 323 324 324 323 324 323 324 325 324 323 323 324 328 326 326 324 322 322 322 323 319 322 319 319 321 318 319 319 322 320 318 319 319 320 317 318 319 316 316 314 314 314 314 314 313 313 313 312 312 311
314 313 314 315 315 315 318 319 316 313 314 315 314 316 313 316 317 318 316 316 316 317 315 315 317 317 320 318 318 316 317 317 311 313 316 316 317 320 320 319 320 321 323 326 325 326 328 328 327 327 324 323 322 321 321 320 319 323 321 323 325 319 319 318 317 317 317 319 319 322 317 317 316 316 315 315 315 315 315 315 314 314 315 314 313 313 314
316 314 314 314 314 315 316 315 314 314 314 315 318 317 318 319 320 317 318 318 316 318 314 314 316 319 320 321 318 315 318 322 321 314 318 316 315 315 317 324 323 323 319 318 324 324 328 321 323 324 323 323 321 321 320 320 320 321 318 319 317 319 319 319 318 319 319 317 317 316 316 314 315 316 315 315 316 317 316 316 317 316 315 313 313 313 313
316 315 316 314 313 312 312 312 311 313 316 315 317 318 317 317 313 312 314 313 313 314 312 313 313 316 315 314 314 317 320 321 319 320 318 318 317 319 316 316 319 320 319 319 318 322 328 325 323 325 324 323 321 322 321 320 320 320 320 320 320 319 319 319 311 313 318 319 317 316 316 316 320 318 318 317 315 315 315 315 318 312 309 312 313 313 312
321 322 319 319 313 315 315 316 315 316 314 314 314 314 316 313 312 314 313 312 312 312 311 312 313 313 313 314 314 315 316 317 317 319 318 318 319 317 317 316 319 319 319 318 318 318 325 323 324 324 324 323 322 321 321 321 320 319 321 320 319 319 318 318 316 317 318 317 317 317 319 318 320 321 317 316 315 316 316 314 315 315 315 314 314 315 314
317 320 321 315 313 314 315 314 317 318 317 315 314 313 312 312 313 313 313 313 312 311 311 311 310 313 313 314 313 314 315 315 315 314 316 318 316 314 315 317 315 315 316 316 316 318 317 318 319 322 323 321 321 320 323 323 320 319 320 320 321 319 320 321 319 317 319 320 316 317 317 321 320 319 320 320 317 316 317 317 316 316 315 315 316 317 316
Wind_Speed
25 26 20 19 21 17 18 20 21 22 23 23 23 20 22 16 15 16 10 10 12 11 18 17 11 8 11 12 11 12 10 10 8 3 6 13 19 14 12 12 10 11 9 11 15 16 16 17 19 19 18 18 16 15 15 16 17 19 16 16 16 17 17 16 16 16 16 15 15 15 14 14 14 14 14 13 12 12 13 13 12 13 14 14 13 13 13
27 25 27 23 20 19 19 19 19 20 21 23 24 22 20 22 14 14 17 11 13 16 16 20 19 14 11 10 8 10 11 11 5 4 16 16 15 15 11 9 10 8 8 8 10 12 11 15 16 17 16 16 17 17 16 17 15 15 15 16 15 16 17 16 15 15 15 13 14 14 14 15 15 14 13 13 12 12 13 13 11 11 11 12 13 14 14
16 20 23 25 26 20 21 20 18 20 20 22 23 22 22 21 23 26 24 14 12 13 10 14 18 17 14 10 10 14 11 13 16 14 14 13 17 17 17 15 13 11 11 10 11 12 12 13 15 16 14 15 16 20 19 20 16 15 14 15 16 16 16 16 15 15 14 14 13 13 14 14 14 14 13 12 11 10 11 12 12 10 10 13 13 12 13
14 17 22 24 24 24 22 21 21 24 25 23 21 21 17 17 15 15 20 15 12 12 15 16 15 17 17 19 15 11 9 16 16 16 17 17 12 9 15 13 12 13 13 13 13 14 14 14 14 13 12 13 15 18 17 18 19 17 14 16 17 16 14 15 15 16 15 14 13 13 13 13 13 12 11 10 9 8 8 10 10 10 10 11 12 12 11
15 14 15 17 19 19 21 23 23 22 20 20 20 13 16 18 18 17 14 12 10 8 9 16 16 16 15 16 18 18 16 9 12 17 18 18 16 9 13 14 16 17 18 16 15 16 16 15 14 15 13 13 14 15 15 15 15 17 16 17 15 15 14 16 16 15 14 14 13 12 12 12 11 10 10 9 9 8 8 8 9 9 9 10 11 11 11
12 15 15 13 12 15 17 13 18 21 22 20 20 18 18 19 21 14 14 14 9 9 12 17 13 16 15 11 9 10 8 6 4 9 11 16 15 13 11 18 15 14 11 12 14 16 15 17 20 19 17 16 13 13 12 10 14 15 13 14 15 16 14 15 15 14 13 13 12 11 10 10 9 9 9 9 9 7 6 6 8 8 9 10 10 11 11
12 13 17 16 18 18 14 12 13 15 19 21 23 20 21 23 18 18 20 21 17 14 12 12 13 9 9 11 13 15 19 15 12 10 10 7 10 11 9 11 18 16 15 14 15 15 17 19 15 14 13 13 12 13 12 13 12 12 11 12 15 14 14 13 13 13 13 12 11 11 10 10 9 9 9 8 8 7 7 8 8 8 8 9 9 10 11
10 12 12 15 17 12 12 15 15 15 17 19 20 21 22 25 22 16 10 10 11 20 17 17 10 9 14 19 16 10 14 17 17 18 16 16 15 9 7 9 9 16 17 17 18 17 15 14 15 17 17 17 17 18 18 14 12 11 9 11 14 14 13 13 13 13 13 12 12 11 11 10 10 10 9 9 9 8 7 7 6 7 7 8 9 10 9
13 12 12 14 6 11 15 13 16 13 13 16 18 16 15 19 19 16 11 8 12 14 13 20 19 15 15 13 10 19 21 14 18 22 21 22 17 14 12 12 10 17 15 16 16 13 14 17 17 18 17 18 17 17 17 15 12 12 10 12 14 14 13 13 13 14 14 14 13 12 11 11 10 9 9 9 9 8 8 8 8 8 8 9 6 8 9
13 11 13 12 13 15 12 11 3 2 5 7 5 5 6 4 9 10 13 9 10 10 16 11 5 11 16 12 10 14 21 24 22 21 21 21 19 16 15 15 11 15 16 16 16 18 18 18 18 16 17 17 15 14 15 14 13 13 11 13 13 13 14 14 13 13 13 13 13 12 11 11 11 9 8 7 7 7 8 9 11 11 8 7 6 7 8
8 13 12 11 13 11 6 8 4 8 2 3 7 5 8 2 6 11 10 9 9 11 13 13 9 8 6 9 11 10 18 22 22 22 21 22 22 22 20 19 15 16 18 20 17 18 19 20 17 16 17 18 16 15 14 17 16 14 13 13 13 14 14 14 13 12 12 12 12 13 11 10 10 11 10 8 7 7 8 8 7 5 6 6 6 6 9
10 10 11 13 7 6 6 7 6 10 8 6 3 10 7 5 7 9 10 9 9 9 9 9 8 6 7 9 5 12 19 15 12 12 13 18 19 21 22 22 21 10 16 15 18 20 19 17 18 16 18 16 16 15 15 17 16 14 15 14 14 13 13 13 12 12 11 12 12 12 11 10 9 8 8 9 9 8 6 5 3 3 5 6 6 7 6
9 10 9 9 9 5 8 8 5 3 4 4 9 11 0 6 7 7 8 7 8 8 9 7 8 7 8 11 15 17 16 12 15 10 9 9 12 14 19 22 20 11 15 18 19 21 16 16 16 17 16 15 14 14 14 14 15 15 15 15 15 14 13 14 13 12 10 11 11 11 11 10 10 10 10 9 8 7 7 6 3 2 3 4 6 4 6
13 11 12 9 8 7 8 7 8 8 7 10 11 2 2 4 7 7 8 9 9 9 9 7 6 9 14 15 17 20 18 15 6 4 3 11 17 17 5 3 11 14 15 13 15 16 12 14 14 14 14 14 13 13 14 15 14 13 14 15 14 14 14 13 14 14 13 12 11 11 11 11 10 10 9 9 9 9 8 6 6 5 4 3 2 2 2
12 11 13 9 8 5 11 8 10 8 10 1 4 3 5 7 7 8 8 9 10 10 10 10 11 12 12 15 14 13 14 16 14 3 4 6 9 11 8 6 9 9 9 11 14 13 14 16 13 13 14 15 14 13 13 13 13 13 14 14 15 15 14 14 13 13 13 13 11 10 10 10 10 11 9 8 7 7 6 8 8 7 5 3 3 1 2
11 12 12 6 5 5 10 10 7 8 1 4 3 5 3 6 6 7 7 7 9 10 10 11 11 12 10 8 6 8 8 13 17 15 8 6 8 6 4 8 9 11 9 8 8 9 12 10 10 11 13 15 13 13 13 12 13 14 14 14 15 15 14 13 13 12 12 12 10 9 11 9 9 9 9 7 8 7 8 7 7 6 5 4 3 4 6
9 7 6 1 2 7 9 10 1 7 8 5 4 2 4 4 6 8 7 10 13 14 15 12 10 9 10 5 5 8 8 10 10 9 13 14 13 5 3 5 4 5 8 8 7 7 7 8 7 10 13 14 14 13 11 12 14 14 14 14 14 14 13 12 11 11 10 9 9 8 8 8 8 9 8 9 9 8 8 7 6 6 5 5 5 6 7
7 8 8 8 5 6 7 6 7 9 7 8 7 7 5 7 6 9 9 9 9 11 14 12 7 4 4 7 9 8 6 4 7 7 6 6 6 8 11 6 3 6 7 6 8 10 11 12 11 10 11 14 15 12 12 13 14 14 14 14 13 14 13 12 12 12 12 11 9 9 9 6 7 7 7 8 8 8 7 7 6 7 6 6 7 7 6
8 2 3 8 10 5 8 5 7 6 10 9 6 6 6 6 8 9 10 9 7 7 7 12 13 14 9 9 10 7 5 6 6 9 7 4 2 4 3 4 3 3 8 10 11 13 14 14 15 14 16 15 14 11 12 14 14 13 14 14 14 13 13 13 11 11 11 9 9 9 7 7 6 6 7 7 8 7 6 6 6 6 6 7 7 7 6
5 5 11 8 12 13 8 8 10 12 9 11 9 8 9 9 9 11 11 12 14 13 13 13 12 11 12 12 11 11 12 11 9 7 7 9 13 12 8 9 11 6 7 10 12 11 10 11 13 15 14 14 14 13 13 14 14 13 13 13 13 13 14 12 10 10 9 11 11 8 7 5 6 8 8 8 7 6 6 6 7 6 6 7 7 6 6
3 9 11 2 16 17 17 17 15 14 14 11 10 10 11 12 13 15 16 15 14 14 15 15 15 15 15 16 13 13 11 11 10 11 12 13 14 12 13 13 11 7 7 10 9 12 10 10 12 13 13 14 15 14 12 12 12 13 13 13 13 14 13 12 11 9 10 10 9 9 9 9 8 8 6 3 5 7 7 5 2 3 7 6 6 6 6
2 6 4 7 6 11 11 15 15 15 15 17 17 18 18 16 15 15 17 18 17 17 16 15 14 13 11 13 14 14 11 9 9 11 12 14 15 13 12 12 12 10 10 10 11 11 9 9 11 12 13 12 12 13 13 12 12 13 13 13 14 13 12 12 12 11 10 11 11 10 9 7 7 8 14 15 10 6 5 6 6 5 5 3 3 4 5
0 2 2 4 12 12 12 12 13 13 13 15 17 17 17 17 17 16 16 16 17 18 19 17 15 13 10 8 8 10 9 9 9 11 12 13 12 10 11 14 14 12 12 12 11 11 9 9 10 11 11 12 11 12 11 11 12 12 11 10 10 11 11 10 10 9 10 10 10 9 9 8 7 8 8 10 15 14 10 4 7 11 10 7 8 8 7
5 1 3 4 8 12 11 13 13 13 12 14 16 16 16 16 15 16 17 16 16 16 17 19 20 16 13 11 8 6 7 10 10 12 12 14 14 14 14 13 13 12 12 11 11 11 10 10 11 11 13 13 11 12 11 11 10 9 9 9 10 10 10 9 8 7 8 9 9 9 9 8 9 9 9 8 7 11 11 10 11 12 13 13 11 11 15
2 6 9 8 12 13 12 12 13 12 13 12 14 15 15 15 16 15 16 15 16 17 15 16 19 19 17 15 14 13 12 12 11 10 11 11 13 13 13 15 14 11 10 10 10 10 10 11 11 12 12 11 10 10 9 9 8 8 7 8 10 12 11 9 7 8 8 7 7 8 9 9 8 8 9 8 8 6 6 9 11 13 14 15 14 12 11
2 8 8 8 9 10 10 11 12 12 11 11 11 12 13 13 13 15 15 14 13 14 14 12 13 12 12 14 14 15 15 16 14 13 13 13 13 13 14 14 12 11 11 10 9 10 11 12 11 11 11 11 10 9 9 8 7 6 7 9 12 11 10 11 9 8 8 8 8 7 7 6 7 8 8 8 8 8 7 5 5 8 12 16 15 13 14
2 9 9 11 13 13 12 10 7 7 9 9 9 10 11 11 12 13 13 14 14 14 13 13 11 11 11 13 14 16 16 15 15 15 13 14 15 14 12 12 13 13 13 11 10 9 10 9 9 10 10 10 10 9 9 9 5 6 10 11 10 13 19 13 10 9 9 9 8 8 8 6 6 6 7 8 8 8 7 7 7 6 5 5 11 14 9
10 4 4 8 10 11 11 11 11 11 11 11 10 11 10 10 12 14 15 14 14 13 12 13 14 13 13 13 14 15 16 17 16 15 14 14 12 11 11 13 12 12 11 11 10 9 9 9 10 10 9 8 8 7 8 7 8 9 9 10 11 10 10 12 10 9 9 8 7 7 7 7 7 7 7 7 7 7 7 7 7 7 6 5 5 8 13
10 10 9 11 11 12 12 10 11 11 12 12 12 9 10 13 13 14 14 13 11 12 13 13 12 13 13 13 13 14 14 14 15 14 13 12 12 12 11 9 11 12 11 10 9 8 8 8 8 9 8 7 8 8 8 9 8 9 8 9 9 10 9 8 8 7 7 7 7 7 6 7 6 6 6 5 6 7 7 7 7 7 7 6 6 5 6
9 10 11 12 13 13 12 11 11 11 11 10 12 13 12 12 12 12 11 12 12 12 12 12 12 12 11 11 12 11 11 12 11 11 11 10 10 11 12 10 7 9 10 9 9 7 7 7 7 7 7 7 8 7 8 7 7 7 7 7 7 7 6 8 8 8 6 6 7 8 6 4 5 6 7 8 8 7 6 6 9 8 7 6 6 6 6
9 12 14 14 14 13 13 11 10 11 11 11 11 11 12 13 12 10 10 10 9 9 11 11 12 12 11 10 7 7 9 8 8 9 11 11 11 12 12 11 9 8 8 7 7 6 6 6 6 6 4 7 8 7 7 6 6 7 7 7 7 12 15 14 9 6 6 6 5 6 5 5 5 4 4 4 5 4 6 8 8 7 7 6 6 6 6
12 12 14 12 11 12 12 10 11 11 11 11 12 13 12 11 11 10 8 8 7 8 8 10 9 7 6 7 7 6 7 9 9 10 10 11 12 10 10 10 9 8 8 7 7 7 6 6 6 5 3 6 6 8 7 7 7 8 8 8 9 7 8 10 5 6 5 5 5 4 4 5 6 5 5 5 5 4 7 7 7 7 6 6 6 7 8
11 12 12 11 11 11 11 10 10 11 11 12 11 10 10 10 9 9 7 6 5 6 7 7 5 5 4 3 3 4 2 3 5 5 6 8 8 8 9 8 8 7 6 5 4 5 5 6 5 5 4 5 5 6 8 7 7 6 6 6 6 7 5 4 7 6 5 4 3 4 4 3 4 4 3 3 3 4 5 6 6 6 7 6 6 7 7
11 9 8 7 8 8 9 9 8 9 9 10 9 9 9 9 8 8 7 6 6 5 5 4 3 4 2 1 1 2 2 3 2 3 4 5 6 8 8 6 6 6 6 7 7 5 4 4 5 5 4 1 3 3 5 6 6 6 6 6 5 4 4 5 7 5 4 4 3 3 3 4 3 4 4 4 4 5 6 7 6 6 7 6 6 7 10
8 8 6 6 7 8 7 7 7 8 9 9 9 9 8 8 9 9 9 9 9 6 6 4 3 5 2 2 3 4 4 4 3 3 4 3 5 5 5 5 5 5 6 7 7 7 6 7 8 8 8 7 1 4 5 4 6 5 7 7 5 4 3 3 3 4 3 4 5 4 4 4 3 3 4 4 4 4 5 5 5 6 5 6 7 7 8
7 7 7 7 9 9 9 9 9 10 9 8 8 8 9 9 10 10 9 9 8 7 6 5 3 4 3 3 2 4 3 6 5 5 2 2 3 2 2 2 2 2 4 4 4 4 3 3 4 10 5 3 0 2 1 5 6 5 5 4 4 4 3 3 4 5 5 5 4 4 4 5 5 4 4 4 4 5 5 6 6 5 7 7 7 7 6
7 8 7 8 7 7 7 6 5 6 8 7 7 8 8 8 7 5 8 8 8 8 7 6 5 4 4 3 5 5 3 1 3 3 1 1 0 2 2 1 2 3 3 3 2 1 3 2 5 11 3 5 5 5 5 8 5 5 4 4 4 4 4 5 5 5 5 4 5 5 6 5 4 4 3 3 4 3 3 3 3 2 6 8 7 6 6
9 9 8 8 8 8 9 9 8 8 9 10 9 8 6 6 7 8 8 8 7 6 6 6 6 5 4 4 5 5 4 5 4 3 3 3 3 3 6 5 4 3 4 3 3 5 4 6 10 3 5 5 5 5 7 10 7 4 3 3 4 4 5 5 5 4 5 5 5 5 5 5 5 5 3 3 2 2 2 1 2 1 5 7 6 7 7
9 8 8 8 8 9 9 9 8 8 9 10 8 8 7 8 10 9 8 8 8 6 7 5 5 5 5 5 4 5 8 7 6 5 4 4 4 5 5 4 4 3 1 1 3 4 5 7 1 6 5 5 5 7 6 7 7 4 3 3 3 3 4 5 5 5 4 5 5 5 4 4 4 3 3 2 2 2 1 2 1 3 3 5 6 6 6
9 8 9 9 9 9 9 9 9 10 9 8 8 7 7 8 9 9 8 8 7 6 7 6 6 5 5 5 6 6 6 5 6 5 5 5 4 4 5 5 3 3 3 5 4 4 5 9 7 5 3 2 3 4 4 5 6 3 4 4 4 5 3 3 4 4 4 3 3 3 3 3 3 3 2 3 3 2 3 2 0 1 1 3 4 5 6
11 10 9 9 9 9 10 10 9 9 10 10 9 8 8 8 7 7 8 7 6 6 6 6 6 6 7 6 7 7 5 5 6 7 5 4 1 3 3 5 5 5 6 4 5 3 3 4 5 3 3 3 4 3 3 2 1 2 2 3 3 3 5 4 3 3 3 4 4 4 4 5 4 5 5 2 4 3 4 4 3 3 2 2 3 4 6
11 11 11 11 10 10 10 10 9 9 9 9 8 8 9 9 8 8 7 7 6 6 5 6 8 6 5 5 7 7 7 7 7 7 7 7 6 4 5 3 5 4 7 7 3 4 3 2 3 1 1 1 3 4 6 0 2 2 2 3 2 2 3 5 5 4 4 3 4 4 3 3 2 2 2 3 4 2 2 4 6 5 5 5 4 3 3
10 11 10 10 10 10 9 8 9 9 9 8 8 8 8 8 8 7 8 7 8 6 6 6 6 7 6 6 5 5 3 5 7 6 6 8 8 6 4 3 3 3 6 4 5 4 3 2 2 2 2 2 3 3 3 1 2 2 2 2 3 3 4 4 3 3 4 4 3 1 4 5 5 3 4 3 2 3 2 1 2 1 2 3 5 5 4
11 10 9 9 9 8 8 8 8 8 8 6 6 7 7 6 6 7 8 8 8 8 7 7 7 7 7 7 7 6 6 7 7 6 4 4 8 9 6 4 3 6 9 5 5 5 4 4 4 6 10 8 5 6 5 2 3 2 2 3 3 3 3 3 3 3 3 2 1 4 3 2 1 3 5 3 2 2 2 2 4 4 4 3 4 3 3
10 9 9 9 8 6 6 6 7 8 7 6 5 5 6 7 7 8 7 6 6 7 7 6 6 5 6 7 7 6 6 5 6 3 3 4 6 6 5 6 6 5 7 6 4 4 4 4 5 7 6 6 8 7 5 2 4 4 4 4 3 2 2 2 2 2 1 1 2 3 2 2 1 2 2 3 6 4 3 1 2 2 4 2 2 2 1
10 9 8 8 7 7 6 7 7 6 5 5 6 8 7 4 4 4 5 5 5 6 6 5 5 6 7 7 7 6 6 5 6 5 4 4 5 4 4 6 4 5 8 8 5 4 4 5 6 7 8 9 10 6 6 3 4 2 1 1 2 2 2 2 4 4 2 1 1 2 4 2 4 3 3 2 3 2 7 6 3 1 2 2 3 1 2
8 8 7 6 5 6 6 6 6 6 7 6 6 5 4 4 3 3 3 3 5 4 4 5 6 4 6 8 6 6 7 5 5 6 3 4 5 5 4 7 7 7 5 4 4 4 3 2 4 6 8 9 10 6 7 3 3 2 2 3 3 2 1 4 0 1 2 3 2 0 3 0 2 2 5 6 4 4 4 3 4 5 5 2 1 2 2
7 7 7 6 7 6 4 5 6 7 6 5 5 5 6 5 5 5 4 5 3 1 1 4 4 6 7 7 7 7 6 6 6 6 8 6 7 5 4 4 4 2 2 6 6 6 7 4 3 3 5 7 6 6 5 5 1 1 2 2 2 0 2 2 2 2 0 0 2 3 2 2 2 3 0 3 4 4 4 5 3 1 1 1 2 3 3
9 8 7 8 8 7 7 8 8 7 6 5 5 3 4 4 3 6 6 5 7 4 7 10 9 7 5 7 8 8 7 5 5 4 4 6 6 6 4 5 1 2 5 3 5 3 5 7 5 3 2 4 4 5 5 3 4 4 0 2 1 2 2 2 1 1 1 3 5 6 5 5 5 5 4 3 3 2 3 2 2 2 2 4 5 4 5
5 6 7 6 6 7 7 6 7 7 6 7 7 5 7 5 5 6 7 9 7 7 6 6 7 7 7 5 4 5 5 5 5 5 5 6 7 5 4 7 7 10 6 3 4 5 7 8 6 4 3 3 4 4 4 4 4 3 3 4 2 3 4 3 6 4 3 5 5 2 4 4 2 2 0 1 1 1 1 1 1 6 5 2 2 2 4
4 4 5 5 6 7 7 7 6 6 6 7 7 6 5 6 6 5 6 7 7 6 7 7 6 7 6 7 8 8 7 7 8 8 6 5 6 7 9 7 5 7 8 7 8 6 5 5 5 5 4 3 3 4 4 4 3 4 4 4 5 5 2 1 2 2 2 3 2 2 2 2 2 2 3 3 3 3 2 2 3 3 2 2 3 4 4
3 3 4 6 8 8 7 6 5 4 4 5 6 6 6 6 5 3 3 6 5 6 7 7 7 6 6 5 6 6 5 7 8 6 6 5 5 7 8 10 6 8 7 8 7 8 7 7 5 2 3 2 3 4 4 4 4 4 5 5 5 4 4 5 4 2 3 2 4 3 3 2 2 2 2 2 3 2 2 3 3 3 3 3 3 2 3
Wind_Direction
224 240 244 224 236 223 222 220 221 211 215 233 230 226 231 220 230 245 226 221 242 258 253 261 258 224 226 229 207 196 231 234 234 119 150 155 170 169 167 162 169 176 175 171 179 182 185 180 183 184 186 192 196 198 195 194 196 192 184 184 183 181 179 183 184 186 190 192 192 191 189 187 193 196 197 199 194 182 184 192 196 193 189 185 182 185 188
203 217 238 247 242 231 219 224 225 218 216 218 231 242 234 232 240 236 241 222 227 232 242 253 253 263 255 235 215 186 205 227 272 183 166 194 186 156 159 170 176 179 177 163 168 175 177 182 182 188 186 190 194 196 193 191 197 191 180 181 182 182 180 181 181 184 189 190 192 191 188 189 194 196 196 195 194 186 183 188 191 193 182 178 183 184 187
248 215 214 231 245 249 249 226 225 246 228 216 217 225 236 239 236 240 242 236 241 244 241 239 257 264 269 261 242 221 199 200 224 245 248 224 212 188 171 177 181 178 179 170 166 168 180 182 186 189 191 190 192 200 198 195 195 193 178 177 180 183 181 179 177 181 184 190 189 190 191 193 194 196 197 195 193 186 183 186 190 192 179 175 183 186 187
231 238 224 215 227 242 252 260 238 216 237 247 219 210 215 233 242 243 239 237 234 227 232 243 233 236 246 257 263 257 223 210 205 227 239 249 249 187 171 172 181 181 181 177 168 174 176 184 185 189 190 190 190 201 200 198 194 195 182 176 180 182 176 174 175 180 184 185 186 189 189 192 193 195 195 194 194 191 185 182 187 186 184 176 176 178 185
236 232 246 228 224 226 233 233 240 251 240 238 261 250 196 215 241 247 245 242 237 224 217 231 238 234 229 238 247 253 250 225 216 209 221 233 228 214 173 168 181 186 187 178 178 176 181 182 184 188 189 191 197 201 205 198 189 196 188 179 177 178 173 173 176 179 179 181 182 183 186 187 187 187 188 191 191 190 195 182 174 184 179 171 177 178 183
226 229 247 244 235 236 232 229 232 235 249 253 236 237 248 224 203 221 243 264 261 252 251 252 233 224 238 242 240 253 258 249 229 257 229 221 228 231 192 178 180 184 183 183 177 177 179 185 190 191 188 193 199 205 211 198 194 194 191 173 175 175 170 172 172 172 172 174 176 176 174 173 173 175 179 182 184 171 158 154 170 175 180 176 177 184 185
224 220 224 232 232 233 241 248 250 251 249 249 254 253 243 246 233 222 211 210 227 253 250 247 255 269 273 263 251 232 252 259 255 257 266 252 225 213 227 169 181 175 183 178 178 177 183 188 187 186 188 190 188 197 208 203 197 192 191 167 170 170 168 167 164 164 165 164 167 163 163 164 166 169 174 170 173 165 165 168 174 174 177 182 179 187 189
225 224 211 225 228 247 243 244 250 239 242 251 258 251 248 254 259 259 274 335 253 202 222 246 254 251 249 259 263 263 240 253 258 254 259 247 230 227 217 219 186 177 175 179 179 182 181 176 180 186 190 192 195 198 205 202 194 191 179 160 161 162 162 161 157 157 158 158 157 153 154 157 163 168 168 166 172 170 167 167 168 165 171 185 188 191 189
223 213 222 232 275 262 242 233 231 231 228 221 223 240 243 249 253 265 310 321 311 336 254 219 218 227 242 232 239 253 258 245 246 253 252 254 252 248 241 227 200 171 179 177 177 170 174 179 182 187 186 190 192 193 199 196 188 185 168 159 159 157 155 151 153 155 154 154 150 152 152 153 162 167 169 171 174 172 176 174 173 172 181 191 187 194 193
209 217 215 223 221 233 228 232 349 289 351 2 323 312 294 323 322 320 273 277 305 341 345 332 286 229 215 222 226 222 237 248 248 246 253 260 264 262 257 255 233 173 173 177 167 173 176 180 182 181 181 185 184 188 193 187 179 179 161 162 158 153 152 153 154 155 155 153 152 157 160 166 166 172 179 182 179 166 178 187 196 194 192 191 188 192 197
191 216 226 220 228 224 226 221 206 237 40 6 357 292 265 18 344 22 12 351 355 350 327 326 338 358 313 237 226 225 229 227 234 246 250 249 248 253 258 260 249 187 174 173 165 174 175 180 179 175 177 180 182 185 187 186 181 173 158 158 157 155 155 154 154 153 155 156 159 163 164 167 167 169 178 176 182 175 189 204 205 187 180 182 191 174 196
205 218 221 224 211 230 131 126 185 225 210 93 261 253 246 36 4 24 20 10 9 355 344 351 340 337 317 311 296 256 237 234 239 235 238 242 238 235 232 241 253 211 174 164 164 173 174 178 174 175 174 176 179 181 182 180 178 170 158 156 155 155 155 151 153 155 161 158 160 162 157 162 165 156 158 170 176 182 187 185 183 181 161 179 182 189 187
199 188 233 248 239 201 165 207 182 127 189 221 229 229 16 357 0 5 6 352 10 357 351 354 317 311 303 304 292 301 296 249 247 267 275 272 257 245 230 226 232 197 173 165 167 173 173 173 172 174 173 172 175 177 174 175 177 170 155 149 151 153 149 155 153 152 154 158 160 156 155 158 161 157 164 164 157 162 174 179 156 116 171 187 177 174 187
219 213 223 232 250 217 155 188 209 209 222 219 228 58 291 307 347 340 344 343 358 349 342 325 311 316 306 303 312 303 303 294 313 299 310 10 347 286 274 129 167 158 165 153 160 166 159 170 169 170 166 164 166 168 169 171 168 159 148 146 148 146 149 153 155 159 159 156 160 156 156 160 162 152 155 154 157 159 172 161 135 124 101 84 97 149 152
229 223 227 226 233 126 211 159 204 196 227 138 51 358 358 355 346 352 353 351 342 335 321 321 313 312 309 305 306 337 348 359 345 336 55 60 41 2 84 92 87 119 125 147 161 163 163 173 173 160 154 153 158 162 164 158 154 149 146 145 143 142 145 148 151 152 152 154 157 158 159 163 156 148 148 151 145 146 133 116 121 119 119 117 116 42 291
231 219 224 229 258 187 181 155 207 137 233 81 48 36 352 15 16 7 356 352 342 330 312 303 304 303 300 290 331 22 28 30 14 350 359 64 97 97 14 114 149 131 134 153 162 167 168 165 159 151 141 149 152 157 153 148 143 142 143 139 136 136 139 142 145 146 145 151 154 154 156 152 141 134 141 138 127 118 112 117 118 118 119 118 135 213 227
250 250 236 218 73 144 179 213 280 109 87 77 55 307 37 12 39 15 18 12 1 349 344 322 313 309 316 313 34 24 29 38 40 19 4 7 357 12 122 108 103 132 130 155 166 144 121 132 126 128 137 141 141 140 137 132 131 134 133 131 130 132 133 134 133 135 139 143 140 142 141 141 129 131 135 125 119 118 122 123 121 130 148 170 198 214 218
341 65 73 84 109 121 146 118 147 169 116 65 43 31 40 42 35 37 27 19 6 2 3 346 328 339 18 2 23 23 16 41 66 35 27 359 33 9 339 339 88 119 157 175 131 107 96 94 92 102 120 123 120 116 118 121 125 125 126 126 127 128 128 129 134 139 145 141 133 128 134 132 124 121 120 122 122 124 125 128 139 157 169 189 203 211 207
3 355 49 108 93 80 71 94 86 108 132 110 85 70 60 65 56 51 53 29 21 13 25 27 31 27 34 63 61 46 46 50 65 63 30 3 13 93 100 266 237 172 170 150 128 119 113 109 106 105 106 107 109 113 117 122 122 123 123 122 121 123 127 131 132 134 131 126 126 122 103 97 106 112 111 117 123 126 133 147 164 173 185 199 202 204 202
47 260 306 76 70 57 74 92 57 44 82 117 90 69 76 75 67 58 51 56 41 33 35 33 35 40 46 56 56 45 45 50 68 77 65 52 53 46 48 36 356 32 64 108 118 113 107 115 123 123 113 110 114 123 126 123 121 117 116 117 118 119 121 121 123 123 121 118 120 117 93 109 134 136 125 121 132 142 161 176 175 177 194 208 208 202 190
67 346 299 119 95 91 76 71 65 56 47 75 108 113 104 97 85 71 68 66 64 48 45 43 44 37 24 21 25 54 48 49 42 44 54 53 54 56 55 61 62 36 83 91 104 109 108 107 113 114 122 125 127 124 120 119 118 114 110 111 114 118 118 119 114 111 119 127 111 87 81 72 50 30 30 57 99 70 33 27 8 197 204 194 200 210 192
153 229 297 334 109 83 65 70 67 64 62 65 65 61 65 69 73 72 68 58 51 53 51 54 51 48 35 29 29 27 39 35 51 64 56 59 61 50 48 67 78 68 59 75 82 80 84 99 104 108 107 111 116 117 118 115 113 111 115 118 120 120 123 123 126 129 137 133 111 110 101 96 92 77 65 53 35 74 86 47 49 27 46 195 225 205 168
105 107 144 147 94 85 59 49 56 63 68 72 70 66 69 66 60 58 61 57 49 42 34 29 56 70 59 45 30 40 13 41 54 71 74 88 92 86 74 73 64 63 64 67 73 80 92 102 108 110 110 108 105 104 105 110 113 115 119 119 121 123 127 133 132 136 139 125 122 118 118 118 110 112 95 56 47 44 49 43 38 50 52 41 46 89 120
320 169 156 94 92 91 78 61 52 48 44 60 69 72 67 65 67 68 65 60 56 50 40 33 24 41 70 62 40 47 63 54 47 55 70 80 83 87 82 76 74 73 69 64 64 62 61 65 70 80 90 91 92 102 106 112 117 118 124 122 125 127 121 107 106 120 117 118 122 121 123 130 125 119 106 103 71 38 38 41 45 51 50 45 46 86 108
135 106 94 85 86 85 76 70 62 54 51 55 60 57 58 63 61 58 59 54 49 51 47 32 29 16 19 41 45 36 36 38 35 57 67 63 62 68 74 75 76 78 79 80 79 78 75 73 76 79 80 81 84 90 102 109 118 118 110 117 120 109 107 117 116 100 115 117 121 129 136 139 132 123 120 120 114 114 54 52 62 60 51 49 48 46 70
57 112 117 120 109 102 98 76 63 60 53 48 51 55 61 63 68 69 66 63 57 56 54 44 44 35 13 12 25 32 38 41 35 40 50 54 64 64 63 65 69 73 76 78 80 86 89 88 89 90 91 94 96 103 106 109 112 123 130 115 109 122 133 128 116 117 123 128 130 129 128 137 144 140 142 140 142 139 134 139 100 64 55 46 38 49 54
106 191 145 99 78 67 67 71 74 64 63 55 53 52 49 51 58 69 75 70 69 64 62 56 46 40 36 24 20 23 30 36 37 36 42 49 49 47 55 69 70 69 69 67 67 68 80 88 91 94 99 105 110 112 117 125 122 89 81 101 117 127 128 129 131 140 142 147 143 142 146 154 151 155 150 149 143 147 149 150 148 136 134 72 42 37 47
39 9 101 89 96 100 97 93 88 78 70 66 61 58 56 55 54 53 54 58 57 58 57 52 48 40 35 25 25 25 26 28 27 30 31 31 35 44 48 49 57 63 64 63 61 56 67 80 87 91 91 93 101 112 122 119 98 105 112 119 124 130 135 136 135 138 145 143 144 141 152 155 174 165 153 148 156 166 160 159 147 135 117 88 81 68 68
57 39 50 115 132 113 116 112 102 92 87 78 69 63 60 59 54 50 45 42 44 50 47 43 47 45 38 31 27 26 24 22 18 19 22 18 21 23 29 49 61 56 57 55 57 58 70 77 85 91 95 102 109 113 115 111 108 112 119 127 129 131 134 124 123 121 113 119 126 144 157 160 160 141 141 157 158 165 170 164 134 126 120 130 130 106 86
53 69 72 66 70 69 68 67 68 72 74 80 81 74 67 65 58 54 49 42 33 41 46 43 41 40 43 41 26 25 26 17 7 6 14 12 14 17 21 12 53 62 60 52 50 50 57 70 81 87 98 104 108 112 114 110 110 114 110 112 111 114 107 96 101 101 102 100 114 123 138 147 132 150 165 169 177 175 161 133 120 124 131 151 153 142 139
50 64 71 72 71 67 61 54 59 63 66 65 70 79 78 75 75 67 50 41 41 47 45 50 51 44 30 37 46 19 11 7 356 352 8 11 13 15 13 15 28 40 47 47 54 54 58 66 69 73 80 106 108 107 114 106 94 96 86 77 71 81 88 89 94 99 104 115 133 147 152 153 151 165 158 160 148 187 127 117 127 128 136 144 158 149 133
78 60 57 58 63 71 69 62 56 53 50 49 51 53 55 63 73 83 85 67 36 22 43 51 47 46 48 12 6 24 22 356 358 347 4 11 11 6 3 8 23 25 38 43 39 40 43 42 44 43 82 97 111 126 122 101 100 102 104 106 103 105 106 112 114 111 122 142 161 148 154 160 156 160 157 175 172 160 118 134 133 136 138 154 158 142 145
75 67 54 51 54 56 58 55 57 52 50 54 51 52 55 56 64 80 111 128 114 71 38 34 26 37 34 38 3 344 347 9 330 334 24 8 355 356 354 360 360 3 19 26 50 42 35 39 36 22 51 91 109 115 118 119 109 110 109 103 105 113 120 125 126 129 137 155 160 154 152 161 135 154 129 114 114 105 114 126 138 143 153 161 150 139 156
70 74 80 73 68 65 60 54 52 62 59 55 53 53 57 60 57 62 75 95 112 110 87 84 3 355 348 279 306 286 319 326 1 31 34 17 351 343 344 2 336 8 27 22 9 19 31 16 358 359 3 4 145 156 143 140 124 119 110 106 115 125 121 118 135 144 147 173 134 112 95 96 110 125 141 145 143 144 143 144 156 157 159 160 141 143 151
93 101 106 109 95 80 74 73 68 66 64 62 61 58 54 56 59 53 46 47 52 96 139 160 164 183 202 269 260 200 161 106 71 35 30 12 333 343 328 353 359 32 47 43 33 34 28 11 14 347 341 323 221 195 165 101 97 108 111 118 129 140 122 132 156 145 141 102 102 109 108 120 111 112 125 125 130 121 140 149 159 151 155 146 138 140 158
75 84 83 78 73 71 66 65 70 71 76 82 80 69 61 57 51 52 55 53 54 49 56 70 77 117 142 211 95 55 100 132 147 137 230 242 251 296 338 242 121 43 50 44 33 23 58 25 341 333 317 236 353 9 78 139 117 94 100 114 124 122 118 126 87 78 88 113 130 135 135 111 121 128 144 153 152 155 161 166 170 167 128 132 137 144 148
75 71 71 83 85 85 88 98 95 94 92 75 73 82 76 57 52 51 49 51 44 45 51 58 52 60 67 57 99 117 135 132 106 86 98 175 185 202 153 89 76 106 119 103 78 23 61 6 328 327 341 77 51 31 28 93 101 92 91 114 124 135 129 119 122 131 133 131 114 104 108 123 140 141 149 159 155 166 155 168 164 172 121 133 132 130 140
83 76 70 69 66 67 67 66 71 62 63 70 68 59 66 87 78 53 48 43 33 46 57 60 55 41 11 9 30 27 91 98 86 74 64 33 22 59 54 46 29 40 57 21 3 42 22 344 327 357 72 64 69 54 46 76 110 127 140 128 135 138 137 140 133 120 119 118 121 134 148 152 149 150 164 146 144 151 178 151 140 157 125 136 139 144 153
90 93 91 81 72 66 66 70 72 77 74 66 58 48 46 54 66 73 63 50 31 21 53 59 62 57 43 42 63 46 33 35 49 73 79 65 68 72 77 62 64 54 10 314 54 46 12 342 303 79 54 62 64 66 50 67 83 71 66 90 119 133 127 133 133 139 138 138 160 170 179 158 155 154 148 152 136 132 118 51 128 169 197 141 156 164 174
89 90 91 88 86 82 79 69 62 60 62 65 65 65 58 53 53 50 54 51 40 33 35 33 38 26 40 44 43 45 35 35 39 42 57 46 38 73 83 78 64 68 34 42 57 50 25 43 42 43 53 110 98 87 51 79 98 100 110 120 116 118 124 132 136 142 140 169 137 146 144 129 144 151 155 162 141 176 143 108 294 314 265 209 178 158 168
78 75 74 76 75 72 70 70 69 64 56 50 52 61 66 73 70 65 57 54 50 37 40 34 38 37 36 43 50 48 54 45 41 40 48 84 61 55 50 58 24 26 32 19 19 41 46 42 40 42 8 15 66 80 104 54 61 97 98 121 170 186 142 159 172 158 179 164 153 193 168 183 178 186 170 185 127 182 201 162 158 190 235 270 253 202 180
79 80 79 75 73 72 69 69 70 69 68 69 65 59 56 57 62 65 64 65 63 57 52 47 55 65 69 61 67 55 48 52 57 59 59 64 55 32 56 16 314 341 6 350 359 354 5 70 98 251 111 51 68 14 358 67 117 124 151 165 153 102 150 179 177 152 189 160 179 214 136 87 101 115 122 188 208 187 165 183 192 202 187 186 201 204 252
80 82 82 83 80 80 83 81 78 77 76 67 63 61 60 60 61 62 64 58 54 53 59 64 56 52 52 51 56 61 43 63 68 52 52 64 83 100 97 94 57 43 80 90 63 71 69 46 41 70 82 104 56 69 334 289 129 171 181 158 155 180 176 178 158 166 196 153 219 132 109 146 164 176 171 217 210 188 224 61 56 23 18 11 6 7 354
70 68 69 73 74 71 72 77 79 73 69 72 77 68 54 44 56 69 64 60 61 53 45 51 67 74 64 56 51 45 38 42 64 60 16 38 63 56 45 50 71 54 42 49 65 67 44 44 70 65 53 44 42 16 324 252 147 141 145 151 163 166 177 169 134 177 220 170 173 111 133 248 286 172 155 199 136 109 106 63 51 46 36 22 6 350 348
66 69 74 78 81 85 85 83 88 94 93 80 60 71 85 76 52 44 58 63 66 69 61 48 38 51 78 74 65 63 64 67 61 66 91 61 52 52 37 35 31 31 23 27 79 63 66 56 31 31 34 18 353 332 313 276 149 150 164 177 185 180 143 175 159 222 229 159 168 159 183 152 93 20 65 68 50 58 81 152 183 68 57 20 13 344 344
76 73 69 74 78 83 77 67 63 67 67 61 72 62 43 50 80 88 73 73 61 63 75 76 58 46 41 60 68 54 73 80 87 97 96 70 70 76 71 64 48 31 34 41 59 56 60 52 36 21 4 354 346 333 305 246 118 126 313 277 186 213 131 158 167 182 169 151 101 161 112 159 256 146 149 164 157 114 67 53 65 120 221 215 202 172 40
74 75 73 68 64 58 72 81 77 63 60 57 51 64 64 43 30 66 63 96 115 109 79 62 54 27 81 79 51 45 26 33 54 17 20 115 118 107 96 82 58 50 47 43 41 67 67 57 25 19 1 352 339 321 315 314 87 33 124 325 335 82 67 296 187 255 211 154 144 21 49 126 240 174 120 89 125 166 174 181 217 211 200 201 161 133 214
69 73 74 64 60 59 52 52 61 68 58 43 48 42 10 341 9 49 74 48 10 255 108 60 102 86 66 78 77 69 50 21 30 30 340 14 38 45 46 44 72 97 49 100 82 86 93 81 66 17 14 338 328 311 317 324 319 182 70 118 180 182 244 244 110 267 311 95 123 90 110 217 307 341 146 194 174 179 203 217 246 283 283 220 227 211 184
14 27 51 60 55 46 41 45 37 30 27 38 42 27 357 326 33 15 357 22 5 21 77 61 53 47 64 63 46 41 21 32 54 38 3 28 33 15 43 105 239 355 22 19 140 159 166 168 171 185 306 303 304 296 307 308 319 338 3 215 284 312 285 294 184 232 230 195 156 187 201 212 203 201 213 249 277 218 193 213 234 235 54 44 347 344 89
48 21 14 29 52 48 38 39 44 30 15 10 352 354 2 343 41 32 17 8 10 17 27 41 39 25 15 19 44 51 34 358 27 33 11 43 16 338 8 22 3 353 348 326 309 170 181 177 180 193 218 255 264 283 302 311 300 285 313 327 272 201 188 181 99 97 30 334 286 210 165 205 236 313 311 163 278 281 32 6 333 100 97 337 310 264 244
47 37 12 354 54 63 54 41 37 30 14 6 3 19 10 360 27 30 19 7 0 16 16 16 37 26 9 24 9 14 17 11 8 23 9 14 27 344 25 6 355 31 360 7 353 15 138 191 189 193 203 234 280 286 279 276 275 291 295 285 307 318 291 207 231 266 258 250 277 311 313 304 274 224 238 250 236 213 230 229 245 244 241 233 224 242 300
41 66 40 24 42 48 41 25 26 38 38 31 29 13 16 359 346 10 43 29 13 14 9 5 4 6 357 17 11 358 7 9 352 353 351 1 15 336 11 352 4 11 1 2 353 345 352 356 360 191 220 274 312 300 292 291 283 283 290 307 289 275 290 308 315 273 218 220 251 258 258 254 267 267 257 247 246 224 197 224 233 233 233 247 262 258 236